Time,TemperatureF,DewpointF,PressureIn,WindDirection,WindDirectionDegrees,WindSpeedMPH,WindSpeedGustMPH,Humidity,HourlyPrecipIn,Conditions,Clouds,dailyrainin,SolarRadiationWatts/m^2,SoftwareType,DateUTC
2013-03-16 00:00:00,48.8,46.0,30.16,SSW,202,6.0,7.0,90,0.00,,---,0.00,0.00,VWS V14.01,2013-03-16 07:00:00,
2013-03-16 00:05:00,48.7,45.9,30.16,South,170,4.0,7.0,90,0.00,,---,0.00,0.00,VWS V14.01,2013-03-16 07:05:00,
2013-03-16 00:10:00,48.7,46.2,30.16,SSW,207,3.0,7.0,91,0.00,,---,0.00,0.00,VWS V14.01,2013-03-16 07:10:00,
2013-03-16 00:15:00,48.7,46.2,30.16,SW,224,5.0,8.0,91,0.00,,---,0.00,0.00,VWS V14.01,2013-03-16 07:15:00,
2013-03-16 00:20:00,48.6,45.8,30.15,SSW,202,5.0,6.0,90,0.00,,---,0.00,0.00,VWS V14.01,2013-03-16 07:20:00,
2013-03-16 00:25:00,48.6,45.8,30.15,SSW,201,8.0,8.0,90,0.00,,---,0.00,0.00,VWS V14.01,2013-03-16 07:25:00,
2013-03-16 00:30:00,48.5,45.7,30.15,SSW,197,4.0,7.0,90,0.00,,---,0.00,0.00,VWS V14.01,2013-03-16 07:30:00,
2013-03-16 00:35:00,48.5,45.7,30.15,SW,217,6.0,10.0,90,0.00,,---,0.00,0.00,VWS V14.01,2013-03-16 07:35:00,
2013-03-16 00:40:00,48.4,45.6,30.15,WSW,247,5.0,8.0,90,0.00,,---,0.00,0.00,VWS V14.01,2013-03-16 07:40:00,
2013-03-16 00:45:00,48.3,45.5,30.15,SSW,203,3.0,5.0,90,0.00,,---,0.00,0.00,VWS V14.01,2013-03-16 07:45:00,
2013-03-16 00:50:00,48.3,45.5,30.15,SSW,198,4.0,10.0,90,0.00,,---,0.00,0.00,VWS V14.01,2013-03-16 07:50:00,
2013-03-16 00:55:00,48.2,45.4,30.15,SW,223,2.0,5.0,90,0.00,,---,0.00,0.00,VWS V14.01,2013-03-16 07:55:00,
2013-03-16 01:00:00,48.1,45.3,30.15,SSE,167,2.0,7.0,90,0.00,,---,0.00,0.00,VWS V14.01,2013-03-16 08:00:00,
2013-03-16 01:05:00,48.1,45.3,30.14,WNW,290,2.0,4.0,90,0.00,,---,0.00,0.00,VWS V14.01,2013-03-16 08:05:00,
2013-03-16 01:10:00,48.0,45.2,30.14,SW,221,4.0,5.0,90,0.00,,---,0.00,0.00,VWS V14.01,2013-03-16 08:10:00,
2013-03-16 01:15:00,48.0,45.5,30.14,SW,227,5.0,7.0,91,0.00,,---,0.00,0.00,VWS V14.01,2013-03-16 08:15:00,
2013-03-16 01:20:00,48.0,45.5,30.14,SSW,193,4.0,4.0,91,0.00,,---,0.00,0.00,VWS V14.01,2013-03-16 08:20:00,
2013-03-16 01:25:00,48.0,45.5,30.14,SW,217,2.0,5.0,91,0.00,,---,0.00,0.00,VWS V14.01,2013-03-16 08:25:00,
2013-03-16 01:30:00,48.0,45.2,30.14,SW,219,2.0,6.0,90,0.00,,---,0.00,0.00,VWS V14.01,2013-03-16 08:30:00,
2013-03-16 01:35:00,48.1,45.3,30.14,WSW,248,3.0,5.0,90,0.00,,---,0.00,0.00,VWS V14.01,2013-03-16 08:35:00,
2013-03-16 01:40:00,48.1,45.3,30.14,SW,229,3.0,8.0,90,0.00,,---,0.00,0.00,VWS V14.01,2013-03-16 08:40:00,
2013-03-16 01:45:00,48.1,45.3,30.14,SSW,202,5.0,6.0,90,0.00,,---,0.00,0.00,VWS V14.01,2013-03-16 08:45:00,
2013-03-16 01:50:00,48.1,45.3,30.14,SSW,203,4.0,8.0,90,0.00,,---,0.00,0.00,VWS V14.01,2013-03-16 08:50:00,
2013-03-16 01:55:00,48.1,45.3,30.14,SSE,147,4.0,7.0,90,0.00,,---,0.00,0.00,VWS V14.01,2013-03-16 08:55:00,
2013-03-16 02:00:00,48.1,45.3,30.14,South,171,2.0,6.0,90,0.00,,---,0.00,0.00,VWS V14.01,2013-03-16 09:00:00,
2013-03-16 02:05:00,48.0,45.2,30.14,SSW,197,5.0,7.0,90,0.00,,---,0.00,0.00,VWS V14.01,2013-03-16 09:05:00,
2013-03-16 02:10:00,48.1,45.3,30.14,South,175,3.0,7.0,90,0.00,,---,0.00,0.00,VWS V14.01,2013-03-16 09:10:00,
2013-03-16 02:15:00,48.1,45.3,30.14,South,191,4.0,7.0,90,0.00,,---,0.00,0.00,VWS V14.01,2013-03-16 09:15:00,
2013-03-16 02:20:00,48.1,45.3,30.14,South,173,2.0,4.0,90,0.00,,---,0.00,0.00,VWS V14.01,2013-03-16 09:20:00,
2013-03-16 02:25:00,48.0,45.2,30.14,SW,221,3.0,3.0,90,0.00,,---,0.00,0.00,VWS V14.01,2013-03-16 09:25:00,
2013-03-16 02:30:00,48.0,45.2,30.14,SSW,195,2.0,5.0,90,0.00,,---,0.00,0.00,VWS V14.01,2013-03-16 09:30:00,
2013-03-16 02:35:00,48.0,45.2,30.14,South,186,2.0,7.0,90,0.00,,---,0.00,0.00,VWS V14.01,2013-03-16 09:35:00,
2013-03-16 02:40:00,48.0,45.2,30.14,SW,236,4.0,8.0,90,0.00,,---,0.00,0.00,VWS V14.01,2013-03-16 09:40:00,
2013-03-16 02:45:00,48.1,45.3,30.14,SW,221,3.0,7.0,90,0.00,,---,0.00,0.00,VWS V14.01,2013-03-16 09:45:00,
2013-03-16 02:50:00,48.1,45.3,30.14,SW,224,3.0,6.0,90,0.00,,---,0.00,0.00,VWS V14.01,2013-03-16 09:50:00,
2013-03-16 02:55:00,48.0,45.2,30.13,SW,215,3.0,6.0,90,0.00,,---,0.00,0.00,VWS V14.01,2013-03-16 09:55:00,
2013-03-16 03:00:00,48.0,45.2,30.13,SW,232,2.0,5.0,90,0.00,,---,0.00,0.00,VWS V14.01,2013-03-16 10:00:00,
2013-03-16 03:05:00,48.0,45.2,30.13,South,176,2.0,5.0,90,0.00,,---,0.00,0.00,VWS V14.01,2013-03-16 10:05:00,
2013-03-16 03:10:00,47.9,45.1,30.12,SW,232,6.0,10.0,90,0.00,,---,0.00,0.00,VWS V14.01,2013-03-16 10:10:00,
2013-03-16 03:15:00,47.9,45.1,30.12,SW,230,7.0,7.0,90,0.00,,---,0.00,0.00,VWS V14.01,2013-03-16 10:15:00,
2013-03-16 03:20:00,48.0,45.2,30.12,WSW,239,4.0,9.0,90,0.00,,---,0.00,0.00,VWS V14.01,2013-03-16 10:20:00,
2013-03-16 03:25:00,48.0,45.2,30.12,WSW,240,2.0,5.0,90,0.00,,---,0.00,0.00,VWS V14.01,2013-03-16 10:25:00,
2013-03-16 03:30:00,48.0,45.2,30.12,SSW,209,3.0,5.0,90,0.00,,---,0.00,0.00,VWS V14.01,2013-03-16 10:30:00,
2013-03-16 03:35:00,48.0,45.2,30.12,SW,232,2.0,5.0,90,0.00,,---,0.00,0.00,VWS V14.01,2013-03-16 10:35:00,
2013-03-16 03:40:00,48.0,45.2,30.12,SW,219,5.0,5.0,90,0.00,,---,0.00,0.00,VWS V14.01,2013-03-16 10:40:00,
2013-03-16 03:45:00,48.0,45.2,30.12,South,186,4.0,6.0,90,0.00,,---,0.00,0.00,VWS V14.01,2013-03-16 10:45:00,
2013-03-16 03:50:00,47.9,45.1,30.11,SSW,194,4.0,6.0,90,0.00,,---,0.00,0.00,VWS V14.01,2013-03-16 10:50:00,
2013-03-16 03:55:00,47.9,45.1,30.11,South,184,3.0,6.0,90,0.00,,---,0.00,0.00,VWS V14.01,2013-03-16 10:55:00,
2013-03-16 04:00:00,47.9,45.1,30.11,South,190,3.0,6.0,90,0.00,,---,0.00,0.00,VWS V14.01,2013-03-16 11:00:00,
2013-03-16 04:05:00,47.9,44.8,30.10,South,180,9.0,9.0,89,0.00,,---,0.00,0.00,VWS V14.01,2013-03-16 11:05:00,
2013-03-16 04:10:00,47.8,44.7,30.10,SW,217,4.0,6.0,89,0.00,,---,0.00,0.00,VWS V14.01,2013-03-16 11:10:00,
2013-03-16 04:15:00,47.8,44.7,30.10,SSW,205,4.0,6.0,89,0.00,,---,0.00,0.00,VWS V14.01,2013-03-16 11:15:00,
2013-03-16 04:20:00,47.8,45.0,30.10,SSW,195,1.0,5.0,90,0.00,,---,0.00,0.00,VWS V14.01,2013-03-16 11:20:00,
2013-03-16 04:25:00,47.8,45.0,30.10,SSW,213,5.0,5.0,90,0.00,,---,0.00,0.00,VWS V14.01,2013-03-16 11:25:00,
2013-03-16 04:30:00,47.7,44.9,30.10,SSW,195,5.0,7.0,90,0.00,,---,0.00,0.00,VWS V14.01,2013-03-16 11:30:00,
2013-03-16 04:35:00,47.7,44.9,30.10,WSW,244,5.0,6.0,90,0.00,,---,0.00,0.00,VWS V14.01,2013-03-16 11:35:00,
2013-03-16 04:40:00,47.8,45.0,30.09,SSE,166,7.0,9.0,90,0.00,,---,0.00,0.00,VWS V14.01,2013-03-16 11:40:00,
2013-03-16 04:45:00,47.8,45.0,30.09,WSW,248,6.0,9.0,90,0.00,,---,0.00,0.00,VWS V14.01,2013-03-16 11:45:00,
2013-03-16 04:50:00,47.8,45.0,30.09,SW,229,3.0,7.0,90,0.00,,---,0.00,0.00,VWS V14.01,2013-03-16 11:50:00,
2013-03-16 04:55:00,47.8,45.0,30.09,South,182,2.0,6.0,90,0.00,,---,0.00,0.00,VWS V14.01,2013-03-16 11:55:00,
2013-03-16 05:00:00,47.8,45.0,30.09,SSW,202,5.0,7.0,90,0.00,,---,0.00,0.00,VWS V14.01,2013-03-16 12:00:00,
2013-03-16 05:05:00,47.7,44.9,30.09,SW,226,5.0,9.0,90,0.00,,---,0.00,0.00,VWS V14.01,2013-03-16 12:05:00,
2013-03-16 05:10:00,47.7,44.9,30.09,SW,219,6.0,9.0,90,0.00,,---,0.00,0.00,VWS V14.01,2013-03-16 12:10:00,
2013-03-16 05:15:00,47.7,44.9,30.08,SSW,200,4.0,7.0,90,0.00,,---,0.00,0.00,VWS V14.01,2013-03-16 12:15:00,
2013-03-16 05:20:00,47.7,44.9,30.09,SSW,195,5.0,12.0,90,0.00,,---,0.00,0.00,VWS V14.01,2013-03-16 12:20:00,
2013-03-16 05:25:00,47.8,45.0,30.08,South,186,5.0,11.0,90,0.00,,---,0.00,0.00,VWS V14.01,2013-03-16 12:25:00,
2013-03-16 05:30:00,47.7,44.9,30.08,SSW,207,6.0,7.0,90,0.00,,---,0.00,0.00,VWS V14.01,2013-03-16 12:30:00,
2013-03-16 05:35:00,47.7,44.9,30.08,SSW,211,5.0,13.0,90,0.00,,---,0.00,0.00,VWS V14.01,2013-03-16 12:35:00,
2013-03-16 05:40:00,47.7,44.9,30.08,South,186,6.0,13.0,90,0.00,,---,0.00,0.00,VWS V14.01,2013-03-16 12:40:00,
2013-03-16 05:45:00,47.7,44.9,30.08,SSW,202,7.0,9.0,90,0.00,,---,0.00,0.00,VWS V14.01,2013-03-16 12:45:00,
2013-03-16 05:50:00,47.7,44.9,30.08,South,187,4.0,7.0,90,0.00,,---,0.00,0.00,VWS V14.01,2013-03-16 12:50:00,
2013-03-16 05:55:00,47.7,44.9,30.08,South,183,4.0,9.0,90,0.00,,---,0.00,0.00,VWS V14.01,2013-03-16 12:55:00,
2013-03-16 06:00:00,47.6,44.8,30.08,South,184,10.0,14.0,90,0.00,,---,0.00,0.00,VWS V14.01,2013-03-16 13:00:00,
2013-03-16 06:05:00,47.7,44.9,30.08,SSW,200,6.0,11.0,90,0.00,,---,0.00,0.00,VWS V14.01,2013-03-16 13:05:00,
2013-03-16 06:10:00,47.7,44.9,30.08,South,178,5.0,10.0,90,0.00,,---,0.00,0.00,VWS V14.01,2013-03-16 13:10:00,
2013-03-16 06:15:00,47.6,44.8,30.07,SSW,205,4.0,9.0,90,0.00,,---,0.00,0.00,VWS V14.01,2013-03-16 13:15:00,
2013-03-16 06:20:00,47.5,44.7,30.07,SSW,207,6.0,9.0,90,0.00,,---,0.00,0.00,VWS V14.01,2013-03-16 13:20:00,
2013-03-16 06:25:00,47.5,44.7,30.07,SSW,204,7.0,11.0,90,0.00,,---,0.00,0.00,VWS V14.01,2013-03-16 13:25:00,
2013-03-16 06:30:00,47.4,44.6,30.07,South,169,3.0,9.0,90,0.00,,---,0.00,0.00,VWS V14.01,2013-03-16 13:30:00,
2013-03-16 06:35:00,47.3,44.5,30.07,SSE,157,4.0,9.0,90,0.00,,---,0.00,0.00,VWS V14.01,2013-03-16 13:35:00,
2013-03-16 06:40:00,47.3,44.8,30.06,SW,216,6.0,8.0,91,0.00,,---,0.00,0.00,VWS V14.01,2013-03-16 13:40:00,
2013-03-16 06:45:00,47.2,44.7,30.06,South,178,6.0,8.0,91,0.00,,---,0.00,0.00,VWS V14.01,2013-03-16 13:45:00,
2013-03-16 06:50:00,47.2,44.7,30.06,SSW,198,4.0,12.0,91,0.00,,---,0.00,0.00,VWS V14.01,2013-03-16 13:50:00,
2013-03-16 06:55:00,47.2,44.7,30.07,South,188,5.0,12.0,91,0.00,,---,0.00,0.00,VWS V14.01,2013-03-16 13:55:00,
2013-03-16 06:56:00,47.2,44.7,30.06,SSW,199,6.0,10.0,91,0.00,,---,0.00,0.00,VWS V14.01,2013-03-16 13:56:00,
2013-03-16 07:00:00,47.2,44.7,30.06,SW,227,10.0,11.0,91,0.00,,---,0.00,0.00,VWS V14.01,2013-03-16 14:00:00,
2013-03-16 07:05:00,47.2,44.7,30.06,SSW,206,8.0,10.0,91,0.00,,---,0.00,0.00,VWS V14.01,2013-03-16 14:05:00,
2013-03-16 07:10:00,47.2,44.7,30.06,SSW,199,8.0,10.0,91,0.00,,---,0.00,0.00,VWS V14.01,2013-03-16 14:10:00,
2013-03-16 07:15:00,47.2,44.4,30.06,South,186,3.0,10.0,90,0.00,,---,0.00,0.00,VWS V14.01,2013-03-16 14:15:00,
2013-03-16 07:16:00,47.2,44.4,30.06,South,180,3.0,12.0,90,0.00,,---,0.00,0.00,VWS V14.01,2013-03-16 14:16:00,
2013-03-16 07:20:00,47.2,44.4,30.06,South,191,6.0,12.0,90,0.00,,---,0.00,0.00,VWS V14.01,2013-03-16 14:20:00,
2013-03-16 07:21:00,47.2,44.4,30.06,South,188,8.0,13.0,90,0.00,,---,0.00,0.00,VWS V14.01,2013-03-16 14:21:00,
2013-03-16 07:25:00,47.2,44.4,30.06,SSW,194,4.0,13.0,90,0.00,,---,0.00,0.00,VWS V14.01,2013-03-16 14:25:00,
2013-03-16 07:26:00,47.1,44.3,30.06,SSW,194,7.0,10.0,90,0.00,,---,0.00,0.00,VWS V14.01,2013-03-16 14:26:00,
2013-03-16 07:30:00,47.1,44.3,30.06,SSW,200,6.0,10.0,90,0.00,,---,0.00,0.00,VWS V14.01,2013-03-16 14:30:00,
2013-03-16 07:31:00,47.1,44.3,30.06,SW,232,4.0,7.0,90,0.00,,---,0.00,5.00,VWS V14.01,2013-03-16 14:31:00,
2013-03-16 07:35:00,47.1,44.3,30.06,SW,227,10.0,10.0,90,0.00,,---,0.00,5.00,VWS V14.01,2013-03-16 14:35:00,
2013-03-16 07:36:00,47.1,44.3,30.06,SSW,198,4.0,10.0,90,0.00,,---,0.00,7.00,VWS V14.01,2013-03-16 14:36:00,
2013-03-16 07:40:00,47.0,44.2,30.06,South,174,4.0,10.0,90,0.00,,---,0.00,7.00,VWS V14.01,2013-03-16 14:40:00,
2013-03-16 07:41:00,47.1,44.3,30.06,SSW,201,3.0,8.0,90,0.00,,---,0.00,7.00,VWS V14.01,2013-03-16 14:41:00,
2013-03-16 07:45:00,47.0,44.2,30.06,SW,215,5.0,8.0,90,0.00,,---,0.00,7.00,VWS V14.01,2013-03-16 14:45:00,
2013-03-16 07:46:00,47.0,44.2,30.06,South,186,6.0,13.0,90,0.00,,---,0.00,7.00,VWS V14.01,2013-03-16 14:46:00,
2013-03-16 07:50:00,47.1,44.3,30.06,South,173,8.0,13.0,90,0.00,,---,0.00,7.00,VWS V14.01,2013-03-16 14:50:00,
2013-03-16 07:51:00,47.2,44.4,30.06,SSW,204,5.0,10.0,90,0.00,,---,0.00,7.00,VWS V14.01,2013-03-16 14:51:00,
2013-03-16 07:55:00,47.1,44.3,30.06,SSW,199,5.0,10.0,90,0.00,,---,0.00,7.00,VWS V14.01,2013-03-16 14:55:00,
2013-03-16 07:56:00,47.2,44.4,30.05,SSW,196,7.0,14.0,90,0.00,,---,0.00,9.00,VWS V14.01,2013-03-16 14:56:00,
2013-03-16 08:00:00,47.2,44.4,30.05,SSW,204,8.0,14.0,90,0.00,,---,0.00,11.00,VWS V14.01,2013-03-16 15:00:00,
2013-03-16 08:01:00,47.2,44.4,30.05,SSW,207,10.0,16.0,90,0.00,,---,0.00,14.00,VWS V14.01,2013-03-16 15:01:00,
2013-03-16 08:05:00,47.3,44.2,30.06,SSW,202,7.0,16.0,89,0.00,,---,0.00,14.00,VWS V14.01,2013-03-16 15:05:00,
2013-03-16 08:06:00,47.3,44.2,30.05,SSW,211,6.0,13.0,89,0.00,,---,0.00,18.00,VWS V14.01,2013-03-16 15:06:00,
2013-03-16 08:10:00,47.3,44.2,30.06,SW,219,3.0,13.0,89,0.00,,---,0.00,18.00,VWS V14.01,2013-03-16 15:10:00,
2013-03-16 08:11:00,47.3,44.5,30.05,SSW,193,7.0,10.0,90,0.00,,---,0.00,21.00,VWS V14.01,2013-03-16 15:11:00,
2013-03-16 08:15:00,47.3,44.5,30.05,SSW,192,7.0,10.0,90,0.00,,---,0.00,21.00,VWS V14.01,2013-03-16 15:15:00,
2013-03-16 08:16:00,47.2,44.1,30.05,WSW,237,9.0,12.0,89,0.00,,---,0.00,26.00,VWS V14.01,2013-03-16 15:16:00,
2013-03-16 08:20:00,47.2,44.1,30.05,SSW,198,8.0,12.0,89,0.00,,---,0.00,28.00,VWS V14.01,2013-03-16 15:20:00,
2013-03-16 08:21:00,47.3,44.2,30.05,SSW,196,4.0,13.0,89,0.00,,---,0.00,25.00,VWS V14.01,2013-03-16 15:21:00,
2013-03-16 08:25:00,47.3,44.2,30.05,SW,231,10.0,13.0,89,0.00,,---,0.00,23.00,VWS V14.01,2013-03-16 15:25:00,
2013-03-16 08:26:00,47.3,44.2,30.05,South,180,5.0,10.0,89,0.00,,---,0.00,21.00,VWS V14.01,2013-03-16 15:26:00,
2013-03-16 08:30:00,47.3,44.2,30.05,SSW,206,6.0,10.0,89,0.00,,---,0.00,19.00,VWS V14.01,2013-03-16 15:30:00,
2013-03-16 08:31:00,47.3,44.2,30.05,SSW,195,7.0,13.0,89,0.00,,---,0.00,25.00,VWS V14.01,2013-03-16 15:31:00,
2013-03-16 08:35:00,47.3,44.2,30.05,South,173,15.0,15.0,89,0.00,,---,0.00,23.00,VWS V14.01,2013-03-16 15:35:00,
2013-03-16 08:36:00,47.4,44.3,30.05,South,186,6.0,15.0,89,0.00,,---,0.00,28.00,VWS V14.01,2013-03-16 15:36:00,
2013-03-16 08:40:00,47.3,44.2,30.05,South,184,8.0,15.0,89,0.00,,---,0.00,26.00,VWS V14.01,2013-03-16 15:40:00,
2013-03-16 08:41:00,47.3,44.2,30.05,SSW,196,6.0,10.0,89,0.00,,---,0.00,32.00,VWS V14.01,2013-03-16 15:41:00,
2013-03-16 08:45:00,47.3,44.2,30.05,SSW,193,7.0,10.0,89,0.00,,---,0.00,35.00,VWS V14.01,2013-03-16 15:45:00,
2013-03-16 08:46:00,47.3,44.2,30.05,SSW,192,8.0,12.0,89,0.00,,---,0.00,53.00,VWS V14.01,2013-03-16 15:46:00,
2013-03-16 08:50:00,47.4,44.3,30.05,SSW,213,7.0,12.0,89,0.00,,---,0.00,60.00,VWS V14.01,2013-03-16 15:50:00,
2013-03-16 08:51:00,47.4,44.3,30.05,SSE,157,7.0,11.0,89,0.00,,---,0.00,56.00,VWS V14.01,2013-03-16 15:51:00,
2013-03-16 08:55:00,47.4,44.3,30.05,SSW,209,7.0,11.0,89,0.00,,---,0.00,56.00,VWS V14.01,2013-03-16 15:55:00,
2013-03-16 08:56:00,47.4,44.3,30.05,SSW,205,7.0,9.0,89,0.00,,---,0.00,60.00,VWS V14.01,2013-03-16 15:56:00,
2013-03-16 09:00:00,47.4,44.3,30.05,South,188,8.0,10.0,89,0.00,,---,0.00,58.00,VWS V14.01,2013-03-16 16:00:00,
2013-03-16 09:01:00,47.4,44.3,30.05,South,179,8.0,9.0,89,0.00,,---,0.00,42.00,VWS V14.01,2013-03-16 16:01:00,
2013-03-16 09:05:00,47.4,44.3,30.05,SSW,198,6.0,9.0,89,0.00,,---,0.00,44.00,VWS V14.01,2013-03-16 16:05:00,
2013-03-16 09:06:00,47.4,44.3,30.05,SW,226,10.0,10.0,89,0.00,,---,0.00,53.00,VWS V14.01,2013-03-16 16:06:00,
2013-03-16 09:10:00,47.4,44.3,30.05,SSW,194,7.0,10.0,89,0.00,,---,0.00,53.00,VWS V14.01,2013-03-16 16:10:00,
2013-03-16 09:11:00,47.3,44.2,30.05,South,187,3.0,12.0,89,0.00,,---,0.00,62.00,VWS V14.01,2013-03-16 16:11:00,
2013-03-16 09:15:00,47.3,44.2,30.05,SW,229,6.0,12.0,89,0.00,,---,0.00,62.00,VWS V14.01,2013-03-16 16:15:00,
2013-03-16 09:16:00,47.3,44.2,30.05,SSW,209,5.0,12.0,89,0.00,,---,0.00,62.00,VWS V14.01,2013-03-16 16:16:00,
2013-03-16 09:20:00,47.3,44.2,30.05,South,175,7.0,12.0,89,0.00,,---,0.00,56.00,VWS V14.01,2013-03-16 16:20:00,
2013-03-16 09:21:00,47.4,44.0,30.05,SSW,213,11.0,11.0,88,0.00,,---,0.00,60.00,VWS V14.01,2013-03-16 16:21:00,
2013-03-16 09:25:00,47.4,44.0,30.05,SSW,209,6.0,11.0,88,0.00,,---,0.00,63.00,VWS V14.01,2013-03-16 16:25:00,
2013-03-16 09:26:00,47.4,44.0,30.05,SSE,157,9.0,10.0,88,0.00,,---,0.00,69.00,VWS V14.01,2013-03-16 16:26:00,
2013-03-16 09:30:00,47.4,44.0,30.05,South,181,6.0,10.0,88,0.00,,---,0.00,76.00,VWS V14.01,2013-03-16 16:30:00,
2013-03-16 09:31:00,47.5,44.1,30.05,SSE,163,3.0,10.0,88,0.00,,---,0.00,62.00,VWS V14.01,2013-03-16 16:31:00,
2013-03-16 09:35:00,47.5,44.1,30.05,SW,221,7.0,10.0,88,0.00,,---,0.00,63.00,VWS V14.01,2013-03-16 16:35:00,
2013-03-16 09:36:00,47.6,44.2,30.05,SSW,194,7.0,15.0,88,0.00,,---,0.00,79.00,VWS V14.01,2013-03-16 16:36:00,
2013-03-16 09:40:00,47.5,44.1,30.05,SSW,207,8.0,15.0,88,0.00,,---,0.00,72.00,VWS V14.01,2013-03-16 16:40:00,
2013-03-16 09:41:00,47.6,44.2,30.05,SSE,165,12.0,12.0,88,0.00,,---,0.00,84.00,VWS V14.01,2013-03-16 16:41:00,
2013-03-16 09:45:00,47.6,44.2,30.05,WSW,238,5.0,13.0,88,0.00,,---,0.00,102.00,VWS V14.01,2013-03-16 16:45:00,
2013-03-16 09:46:00,47.7,44.3,30.04,SSW,193,12.0,12.0,88,0.00,,---,0.00,83.00,VWS V14.01,2013-03-16 16:46:00,
2013-03-16 09:50:00,47.6,44.2,30.04,SSW,202,9.0,12.0,88,0.00,,---,0.00,84.00,VWS V14.01,2013-03-16 16:50:00,
2013-03-16 09:51:00,47.7,44.0,30.04,South,190,7.0,12.0,87,0.00,,---,0.00,88.00,VWS V14.01,2013-03-16 16:51:00,
2013-03-16 09:55:00,47.7,44.0,30.04,SSW,194,9.0,15.0,87,0.00,,---,0.00,88.00,VWS V14.01,2013-03-16 16:55:00,
2013-03-16 09:56:00,47.7,44.0,30.04,SW,225,6.0,13.0,87,0.00,,---,0.00,100.00,VWS V14.01,2013-03-16 16:56:00,
2013-03-16 10:00:00,47.7,44.0,30.04,SW,214,8.0,13.0,87,0.00,,---,0.00,86.00,VWS V14.01,2013-03-16 17:00:00,
2013-03-16 10:01:00,47.8,44.1,30.04,South,187,4.0,10.0,87,0.00,,---,0.00,56.00,VWS V14.01,2013-03-16 17:01:00,
2013-03-16 10:05:00,47.8,44.1,30.04,WSW,248,11.0,11.0,87,0.00,,---,0.00,49.00,VWS V14.01,2013-03-16 17:05:00,
2013-03-16 10:06:00,47.8,44.1,30.04,South,182,9.0,11.0,87,0.00,,---,0.00,60.00,VWS V14.01,2013-03-16 17:06:00,
2013-03-16 10:10:00,47.8,44.1,30.04,SW,215,6.0,11.0,87,0.00,,---,0.00,60.00,VWS V14.01,2013-03-16 17:10:00,
2013-03-16 10:11:00,47.8,44.1,30.04,SSW,205,9.0,17.0,87,0.00,,---,0.00,72.00,VWS V14.01,2013-03-16 17:11:00,
2013-03-16 10:15:00,47.7,44.0,30.04,SSW,213,6.0,17.0,87,0.00,,---,0.00,74.00,VWS V14.01,2013-03-16 17:15:00,
2013-03-16 10:16:00,47.7,44.0,30.04,SSW,194,7.0,15.0,87,0.00,,---,0.00,116.00,VWS V14.01,2013-03-16 17:16:00,
2013-03-16 10:20:00,47.7,44.0,30.04,South,190,5.0,15.0,87,0.00,,---,0.00,114.00,VWS V14.01,2013-03-16 17:20:00,
2013-03-16 10:21:00,47.7,44.0,30.04,SSW,193,7.0,11.0,87,0.00,,---,0.00,125.00,VWS V14.01,2013-03-16 17:21:00,
2013-03-16 10:25:00,47.7,44.0,30.04,SSW,203,10.0,12.0,87,0.00,,---,0.00,128.00,VWS V14.01,2013-03-16 17:25:00,
2013-03-16 10:26:00,47.8,44.1,30.03,SW,216,4.0,11.0,87,0.00,,---,0.00,114.00,VWS V14.01,2013-03-16 17:26:00,
2013-03-16 10:30:00,47.8,44.1,30.03,South,189,5.0,11.0,87,0.00,,---,0.00,105.00,VWS V14.01,2013-03-16 17:30:00,
2013-03-16 10:31:00,47.8,44.1,30.03,SSW,199,10.0,14.0,87,0.00,,---,0.00,83.00,VWS V14.01,2013-03-16 17:31:00,
2013-03-16 10:35:00,47.8,44.1,30.03,SW,221,9.0,14.0,87,0.00,,---,0.00,88.00,VWS V14.01,2013-03-16 17:35:00,
2013-03-16 10:36:00,47.8,44.1,30.03,South,178,2.0,13.0,87,0.00,,---,0.00,113.00,VWS V14.01,2013-03-16 17:36:00,
2013-03-16 10:40:00,47.8,44.1,30.03,South,171,18.0,18.0,87,0.00,,---,0.00,113.00,VWS V14.01,2013-03-16 17:40:00,
2013-03-16 10:42:00,47.8,43.8,30.03,SSW,198,8.0,19.0,86,0.00,,---,0.00,137.00,VWS V14.01,2013-03-16 17:42:00,
2013-03-16 10:45:00,47.8,43.8,30.03,SSW,201,14.0,19.0,86,0.00,,---,0.00,137.00,VWS V14.01,2013-03-16 17:45:00,
2013-03-16 10:47:00,48.0,44.0,30.03,SSW,212,7.0,16.0,86,0.00,,---,0.00,179.00,VWS V14.01,2013-03-16 17:47:00,
2013-03-16 10:50:00,48.0,44.0,30.03,SSW,212,7.0,16.0,86,0.00,,---,0.00,179.00,VWS V14.01,2013-03-16 17:50:00,
2013-03-16 10:52:00,48.2,43.9,30.03,SW,230,8.0,14.0,85,0.00,,---,0.00,195.00,VWS V14.01,2013-03-16 17:52:00,
2013-03-16 10:55:00,48.2,43.9,30.02,SW,220,10.0,14.0,85,0.00,,---,0.00,195.00,VWS V14.01,2013-03-16 17:55:00,
2013-03-16 10:57:00,48.4,44.1,30.02,SSW,205,10.0,11.0,85,0.00,,---,0.00,149.00,VWS V14.01,2013-03-16 17:57:00,
2013-03-16 11:00:00,48.5,44.2,30.02,SW,236,8.0,11.0,85,0.00,,---,0.00,149.00,VWS V14.01,2013-03-16 18:00:00,
2013-03-16 11:02:00,48.6,44.0,30.02,WSW,240,15.0,17.0,84,0.00,,---,0.00,165.00,VWS V14.01,2013-03-16 18:02:00,
2013-03-16 11:05:00,48.6,44.0,30.02,SW,234,11.0,17.0,84,0.00,,---,0.00,165.00,VWS V14.01,2013-03-16 18:05:00,
2013-03-16 11:07:00,48.7,43.5,30.02,SSW,210,16.0,16.0,82,0.00,,---,0.00,142.00,VWS V14.01,2013-03-16 18:07:00,
2013-03-16 11:10:00,48.7,43.5,30.02,SSW,194,11.0,16.0,82,0.00,,---,0.00,135.00,VWS V14.01,2013-03-16 18:10:00,
2013-03-16 11:12:00,48.8,43.6,30.01,SSE,157,5.0,14.0,82,0.00,,---,0.00,102.00,VWS V14.01,2013-03-16 18:12:00,
2013-03-16 11:15:00,48.8,43.6,30.01,SSE,157,5.0,14.0,82,0.00,,---,0.00,102.00,VWS V14.01,2013-03-16 18:15:00,
2013-03-16 11:17:00,48.8,43.6,30.01,SSW,206,7.0,15.0,82,0.00,,---,0.00,121.00,VWS V14.01,2013-03-16 18:17:00,
2013-03-16 11:20:00,48.8,43.6,30.01,SSW,206,7.0,15.0,82,0.00,,---,0.00,121.00,VWS V14.01,2013-03-16 18:20:00,
2013-03-16 11:22:00,48.9,44.0,30.01,SW,214,8.0,13.0,83,0.00,,---,0.00,151.00,VWS V14.01,2013-03-16 18:22:00,
2013-03-16 11:25:00,48.9,44.0,30.01,SW,214,8.0,13.0,83,0.00,,---,0.00,151.00,VWS V14.01,2013-03-16 18:25:00,
2013-03-16 11:27:00,48.9,44.0,30.01,SW,236,16.0,16.0,83,0.00,,---,0.00,120.00,VWS V14.01,2013-03-16 18:27:00,
2013-03-16 11:30:00,48.9,44.0,30.01,SW,236,16.0,16.0,83,0.00,,---,0.00,120.00,VWS V14.01,2013-03-16 18:30:00,
2013-03-16 11:32:00,48.9,44.0,30.01,SW,215,10.0,16.0,83,0.00,,---,0.00,104.00,VWS V14.01,2013-03-16 18:32:00,
2013-03-16 11:35:00,48.9,44.0,30.01,SW,215,10.0,16.0,83,0.00,,---,0.00,104.00,VWS V14.01,2013-03-16 18:35:00,
2013-03-16 11:37:00,48.9,43.7,30.01,South,170,13.0,13.0,82,0.00,,---,0.00,98.00,VWS V14.01,2013-03-16 18:37:00,
2013-03-16 11:40:00,48.9,43.7,30.01,SSW,207,7.0,15.0,82,0.00,,---,0.00,98.00,VWS V14.01,2013-03-16 18:40:00,
2013-03-16 11:42:00,48.9,43.7,30.01,SW,224,6.0,13.0,82,0.00,,---,0.00,93.00,VWS V14.01,2013-03-16 18:42:00,
2013-03-16 11:45:00,48.9,43.7,30.01,SW,224,6.0,13.0,82,0.00,,---,0.00,93.00,VWS V14.01,2013-03-16 18:45:00,
2013-03-16 11:47:00,49.0,43.4,30.01,South,188,10.0,10.0,81,0.00,,---,0.00,120.00,VWS V14.01,2013-03-16 18:47:00,
2013-03-16 11:50:00,49.0,43.4,30.01,SW,215,8.0,12.0,81,0.00,,---,0.00,125.00,VWS V14.01,2013-03-16 18:50:00,
2013-03-16 11:52:00,49.0,43.4,30.01,SW,227,5.0,5.0,81,0.00,,---,0.00,93.00,VWS V14.01,2013-03-16 18:52:00,
2013-03-16 11:55:00,49.0,43.4,30.01,SSW,192,5.0,12.0,81,0.00,,---,0.00,93.00,VWS V14.01,2013-03-16 18:55:00,
2013-03-16 11:57:00,49.0,43.4,30.00,WSW,246,5.0,5.0,81,0.00,,---,0.00,77.00,VWS V14.01,2013-03-16 18:57:00,
2013-03-16 12:00:00,49.0,43.4,30.01,SW,236,5.0,10.0,81,0.00,,---,0.00,77.00,VWS V14.01,2013-03-16 19:00:00,
2013-03-16 12:02:00,49.0,43.4,30.00,SSE,148,11.0,11.0,81,0.00,,---,0.00,83.00,VWS V14.01,2013-03-16 19:02:00,
2013-03-16 12:05:00,49.0,43.4,30.00,SSW,192,4.0,14.0,81,0.00,,---,0.00,83.00,VWS V14.01,2013-03-16 19:05:00,
2013-03-16 12:07:00,49.0,43.4,30.00,South,169,9.0,12.0,81,0.00,,---,0.00,79.00,VWS V14.01,2013-03-16 19:07:00,
2013-03-16 12:10:00,49.0,43.4,30.00,SW,225,12.0,15.0,81,0.00,,---,0.00,79.00,VWS V14.01,2013-03-16 19:10:00,
2013-03-16 12:12:00,48.7,43.8,30.00,SW,231,7.0,7.0,83,0.00,,---,0.00,123.00,VWS V14.01,2013-03-16 19:12:00,
2013-03-16 12:15:00,48.7,43.8,30.00,WSW,243,7.0,15.0,83,0.00,,---,0.00,123.00,VWS V14.01,2013-03-16 19:15:00,
2013-03-16 12:17:00,48.2,44.5,30.00,SSW,207,4.0,6.0,87,0.01,,---,0.01,158.00,VWS V14.01,2013-03-16 19:17:00,
2013-03-16 12:20:00,48.2,44.5,30.00,SSW,194,6.0,13.0,87,0.01,,---,0.01,158.00,VWS V14.01,2013-03-16 19:20:00,
2013-03-16 12:22:00,47.7,44.3,29.99,SW,214,4.0,4.0,88,0.01,,---,0.01,149.00,VWS V14.01,2013-03-16 19:22:00,
2013-03-16 12:25:00,47.7,44.3,29.99,WSW,238,4.0,8.0,88,0.01,,---,0.01,171.00,VWS V14.01,2013-03-16 19:25:00,
2013-03-16 12:27:00,47.5,44.4,29.99,South,189,6.0,6.0,89,0.01,,---,0.01,81.00,VWS V14.01,2013-03-16 19:27:00,
2013-03-16 12:30:00,47.5,44.4,29.99,WSW,240,5.0,11.0,89,0.01,,---,0.01,86.00,VWS V14.01,2013-03-16 19:30:00,
2013-03-16 12:32:00,47.3,44.5,29.99,SSW,209,8.0,8.0,90,0.02,,---,0.02,120.00,VWS V14.01,2013-03-16 19:32:00,
2013-03-16 12:35:00,47.3,44.5,29.99,South,191,7.0,11.0,90,0.02,,---,0.02,120.00,VWS V14.01,2013-03-16 19:35:00,
2013-03-16 12:37:00,46.9,44.1,29.99,WSW,242,6.0,10.0,90,0.02,,---,0.02,120.00,VWS V14.01,2013-03-16 19:37:00,
2013-03-16 12:40:00,47.0,44.2,29.99,SW,216,10.0,12.0,90,0.02,,---,0.02,114.00,VWS V14.01,2013-03-16 19:40:00,
2013-03-16 12:42:00,46.6,43.8,29.98,WSW,240,5.0,7.0,90,0.03,,---,0.03,179.00,VWS V14.01,2013-03-16 19:42:00,
2013-03-16 12:45:00,46.6,43.8,29.99,SSW,198,6.0,10.0,90,0.03,,---,0.03,179.00,VWS V14.01,2013-03-16 19:45:00,
2013-03-16 12:47:00,46.5,43.7,29.98,SW,232,7.0,7.0,90,0.03,,---,0.03,84.00,VWS V14.01,2013-03-16 19:47:00,
2013-03-16 12:50:00,46.5,43.7,29.98,SW,225,6.0,11.0,90,0.03,,---,0.03,84.00,VWS V14.01,2013-03-16 19:50:00,
2013-03-16 12:52:00,46.4,43.9,29.98,SW,232,5.0,8.0,91,0.03,,---,0.03,107.00,VWS V14.01,2013-03-16 19:52:00,
2013-03-16 12:55:00,46.5,44.0,29.98,SW,227,8.0,9.0,91,0.03,,---,0.03,107.00,VWS V14.01,2013-03-16 19:55:00,
2013-03-16 12:57:00,46.3,43.8,29.98,SW,223,8.0,11.0,91,0.04,,---,0.04,76.00,VWS V14.01,2013-03-16 19:57:00,
2013-03-16 13:00:00,46.3,43.8,29.98,WSW,237,11.0,18.0,91,0.04,,---,0.04,81.00,VWS V14.01,2013-03-16 20:00:00,
2013-03-16 13:02:00,46.1,43.6,29.98,SW,236,13.0,17.0,91,0.05,,---,0.05,79.00,VWS V14.01,2013-03-16 20:02:00,
2013-03-16 13:05:00,46.1,43.6,29.98,SW,217,16.0,17.0,91,0.05,,---,0.05,76.00,VWS V14.01,2013-03-16 20:05:00,
2013-03-16 13:07:00,45.8,43.3,29.96,SSE,166,9.0,14.0,91,0.05,,---,0.05,156.00,VWS V14.01,2013-03-16 20:07:00,
2013-03-16 13:10:00,45.8,43.3,29.97,South,185,11.0,17.0,91,0.05,,---,0.05,120.00,VWS V14.01,2013-03-16 20:10:00,
2013-03-16 13:12:00,45.7,43.5,29.97,SW,217,7.0,7.0,92,0.05,,---,0.05,214.00,VWS V14.01,2013-03-16 20:12:00,
2013-03-16 13:15:00,45.7,43.5,29.97,SSW,201,6.0,16.0,92,0.05,,---,0.05,216.00,VWS V14.01,2013-03-16 20:15:00,
2013-03-16 13:17:00,45.9,43.7,29.97,South,175,10.0,10.0,92,0.04,,---,0.05,230.00,VWS V14.01,2013-03-16 20:17:00,
2013-03-16 13:20:00,45.9,43.7,29.97,SSW,199,9.0,13.0,92,0.05,,---,0.05,230.00,VWS V14.01,2013-03-16 20:20:00,
2013-03-16 13:22:00,46.1,44.2,29.96,SSW,204,7.0,7.0,93,0.04,,---,0.05,229.00,VWS V14.01,2013-03-16 20:22:00,
2013-03-16 13:25:00,46.0,43.8,29.96,SSW,206,7.0,10.0,92,0.04,,---,0.05,229.00,VWS V14.01,2013-03-16 20:25:00,
2013-03-16 13:27:00,46.4,44.2,29.96,SSW,193,7.0,7.0,92,0.04,,---,0.05,290.00,VWS V14.01,2013-03-16 20:27:00,
2013-03-16 13:30:00,46.4,44.2,29.96,SSW,194,6.0,13.0,92,0.04,,---,0.05,278.00,VWS V14.01,2013-03-16 20:30:00,
2013-03-16 13:32:00,46.8,44.9,29.95,South,188,14.0,16.0,93,0.03,,---,0.05,540.00,VWS V14.01,2013-03-16 20:32:00,
2013-03-16 13:35:00,46.7,44.8,29.95,SW,225,8.0,14.0,93,0.04,,---,0.05,388.00,VWS V14.01,2013-03-16 20:35:00,
2013-03-16 13:37:00,47.4,45.8,29.95,SW,234,8.0,11.0,94,0.03,,---,0.05,406.00,VWS V14.01,2013-03-16 20:37:00,
2013-03-16 13:40:00,47.4,45.8,29.95,SSW,207,10.0,16.0,94,0.03,,---,0.05,406.00,VWS V14.01,2013-03-16 20:40:00,
2013-03-16 13:42:00,47.7,45.2,29.94,SSW,198,7.0,10.0,91,0.02,,---,0.05,471.00,VWS V14.01,2013-03-16 20:42:00,
2013-03-16 13:45:00,47.7,45.5,29.94,SW,232,9.0,16.0,92,0.03,,---,0.05,434.00,VWS V14.01,2013-03-16 20:45:00,
2013-03-16 13:47:00,48.0,45.5,29.94,South,184,11.0,11.0,91,0.02,,---,0.05,350.00,VWS V14.01,2013-03-16 20:47:00,
2013-03-16 13:50:00,48.0,45.5,29.94,SW,232,7.0,14.0,91,0.02,,---,0.05,350.00,VWS V14.01,2013-03-16 20:50:00,
2013-03-16 13:52:00,47.9,45.1,29.94,SSW,209,7.0,8.0,90,0.02,,---,0.05,223.00,VWS V14.01,2013-03-16 20:52:00,
2013-03-16 13:55:00,48.0,45.2,29.94,SW,215,8.0,13.0,90,0.02,,---,0.05,223.00,VWS V14.01,2013-03-16 20:55:00,
2013-03-16 13:57:00,47.9,45.4,29.94,SSW,202,8.0,8.0,91,0.01,,---,0.05,269.00,VWS V14.01,2013-03-16 20:57:00,
2013-03-16 14:00:00,47.9,45.4,29.94,South,184,7.0,12.0,91,0.02,,---,0.05,269.00,VWS V14.01,2013-03-16 21:00:00,
2013-03-16 14:02:00,47.8,44.7,29.94,South,176,11.0,13.0,89,0.00,,---,0.05,227.00,VWS V14.01,2013-03-16 21:02:00,
2013-03-16 14:05:00,47.8,44.7,29.94,SSW,209,10.0,16.0,89,0.01,,---,0.05,304.00,VWS V14.01,2013-03-16 21:05:00,
2013-03-16 14:07:00,47.7,44.9,29.93,WSW,241,14.0,17.0,90,0.00,,---,0.05,225.00,VWS V14.01,2013-03-16 21:07:00,
2013-03-16 14:10:00,47.7,44.9,29.94,WSW,249,17.0,17.0,90,0.00,,---,0.05,218.00,VWS V14.01,2013-03-16 21:10:00,
2013-03-16 14:12:00,48.3,44.9,29.93,SW,224,12.0,12.0,88,0.00,,---,0.05,260.00,VWS V14.01,2013-03-16 21:12:00,
2013-03-16 14:15:00,48.3,44.9,29.93,SSW,210,9.0,20.0,88,0.00,,---,0.05,225.00,VWS V14.01,2013-03-16 21:15:00,
2013-03-16 14:17:00,48.2,44.8,29.93,SW,217,16.0,16.0,88,0.00,,---,0.05,272.00,VWS V14.01,2013-03-16 21:17:00,
2013-03-16 14:20:00,48.2,44.5,29.93,SSW,209,6.0,20.0,87,0.00,,---,0.05,255.00,VWS V14.01,2013-03-16 21:20:00,
2013-03-16 14:22:00,48.0,44.0,29.93,SW,222,11.0,12.0,86,0.00,,---,0.05,383.00,VWS V14.01,2013-03-16 21:22:00,
2013-03-16 14:25:00,48.0,44.0,29.93,WSW,248,9.0,19.0,86,0.00,,---,0.05,367.00,VWS V14.01,2013-03-16 21:25:00,
2013-03-16 14:27:00,48.2,43.9,29.93,SW,223,10.0,18.0,85,0.00,,---,0.05,281.00,VWS V14.01,2013-03-16 21:27:00,
2013-03-16 14:30:00,48.1,43.8,29.93,SW,226,11.0,19.0,85,0.00,,---,0.05,281.00,VWS V14.01,2013-03-16 21:30:00,
2013-03-16 14:32:00,48.1,43.2,29.93,SSW,202,12.0,13.0,83,0.00,,---,0.05,223.00,VWS V14.01,2013-03-16 21:32:00,
2013-03-16 14:35:00,48.1,43.2,29.93,WSW,257,11.0,20.0,83,0.00,,---,0.05,223.00,VWS V14.01,2013-03-16 21:35:00,
2013-03-16 14:37:00,47.9,42.7,29.93,SW,232,15.0,15.0,82,0.00,,---,0.05,202.00,VWS V14.01,2013-03-16 21:37:00,
2013-03-16 14:40:00,47.9,42.7,29.93,SW,219,7.0,16.0,82,0.00,,---,0.05,202.00,VWS V14.01,2013-03-16 21:40:00,
2013-03-16 14:42:00,47.8,42.9,29.93,SSW,200,13.0,16.0,83,0.00,,---,0.05,214.00,VWS V14.01,2013-03-16 21:42:00,
2013-03-16 14:45:00,47.8,42.9,29.93,WSW,238,15.0,22.0,83,0.00,,---,0.05,209.00,VWS V14.01,2013-03-16 21:45:00,
2013-03-16 14:47:00,47.8,42.9,29.92,SW,233,5.0,9.0,83,0.00,,---,0.05,332.00,VWS V14.01,2013-03-16 21:47:00,
2013-03-16 14:50:00,47.8,42.9,29.93,West,262,9.0,16.0,83,0.00,,---,0.05,346.00,VWS V14.01,2013-03-16 21:50:00,
2013-03-16 14:52:00,48.1,43.2,29.92,SW,217,16.0,16.0,83,0.00,,---,0.05,269.00,VWS V14.01,2013-03-16 21:52:00,
2013-03-16 14:55:00,48.1,43.5,29.92,SW,234,6.0,13.0,84,0.00,,---,0.05,272.00,VWS V14.01,2013-03-16 21:55:00,
2013-03-16 14:57:00,47.9,42.4,29.92,WSW,238,9.0,20.0,81,0.00,,---,0.05,250.00,VWS V14.01,2013-03-16 21:57:00,
2013-03-16 15:00:00,48.0,42.5,29.92,South,179,20.0,20.0,81,0.00,,---,0.05,250.00,VWS V14.01,2013-03-16 22:00:00,
2013-03-16 15:02:00,47.8,42.3,29.92,SSW,199,8.0,11.0,81,0.00,,---,0.05,274.00,VWS V14.01,2013-03-16 22:02:00,
2013-03-16 15:05:00,47.7,41.8,29.92,WSW,252,11.0,20.0,80,0.00,,---,0.05,281.00,VWS V14.01,2013-03-16 22:05:00,
2013-03-16 15:08:00,47.6,41.8,29.92,SW,226,18.0,18.0,80,0.00,,---,0.05,220.00,VWS V14.01,2013-03-16 22:08:00,
2013-03-16 15:10:00,47.7,41.8,29.92,SW,222,10.0,15.0,80,0.00,,---,0.05,241.00,VWS V14.01,2013-03-16 22:10:00,
2013-03-16 15:12:00,47.4,41.9,29.92,SSW,212,13.0,13.0,81,0.00,,---,0.05,178.00,VWS V14.01,2013-03-16 22:12:00,
2013-03-16 15:15:00,47.4,41.5,29.92,WSW,241,7.0,18.0,80,0.00,,---,0.05,193.00,VWS V14.01,2013-03-16 22:15:00,
2013-03-16 15:17:00,47.1,41.6,29.93,SSW,206,8.0,8.0,81,0.00,,---,0.05,104.00,VWS V14.01,2013-03-16 22:17:00,
2013-03-16 15:20:00,47.1,41.3,29.92,SSW,200,5.0,16.0,80,0.00,,---,0.05,95.00,VWS V14.01,2013-03-16 22:20:00,
2013-03-16 15:22:00,46.9,41.1,29.93,SW,217,9.0,11.0,80,0.00,,---,0.05,77.00,VWS V14.01,2013-03-16 22:22:00,
2013-03-16 15:25:00,46.9,41.4,29.92,SW,219,11.0,17.0,81,0.00,,---,0.05,91.00,VWS V14.01,2013-03-16 22:25:00,
2013-03-16 15:27:00,46.7,41.2,29.92,South,172,11.0,20.0,81,0.00,,---,0.05,81.00,VWS V14.01,2013-03-16 22:27:00,
2013-03-16 15:30:00,46.8,41.3,29.92,SSW,202,15.0,16.0,81,0.00,,---,0.05,81.00,VWS V14.01,2013-03-16 22:30:00,
2013-03-16 15:32:00,46.6,41.1,29.92,SW,234,8.0,11.0,81,0.00,,---,0.05,130.00,VWS V14.01,2013-03-16 22:32:00,
2013-03-16 15:35:00,46.6,41.1,29.92,South,186,10.0,20.0,81,0.00,,---,0.05,114.00,VWS V14.01,2013-03-16 22:35:00,
2013-03-16 15:37:00,46.8,41.3,29.93,SSW,209,7.0,11.0,81,0.00,,---,0.05,149.00,VWS V14.01,2013-03-16 22:37:00,
2013-03-16 15:40:00,46.7,41.2,29.93,SW,220,10.0,14.0,81,0.00,,---,0.05,149.00,VWS V14.01,2013-03-16 22:40:00,
2013-03-16 15:42:00,47.1,41.6,29.93,SSW,207,9.0,11.0,81,0.00,,---,0.05,216.00,VWS V14.01,2013-03-16 22:42:00,
2013-03-16 15:45:00,47.0,41.8,29.93,SW,225,9.0,17.0,82,0.00,,---,0.05,225.00,VWS V14.01,2013-03-16 22:45:00,
2013-03-16 15:47:00,47.7,42.2,29.93,WSW,238,11.0,11.0,81,0.00,,---,0.05,267.00,VWS V14.01,2013-03-16 22:47:00,
2013-03-16 15:50:00,47.6,42.1,29.93,WSW,254,10.0,17.0,81,0.00,,---,0.05,267.00,VWS V14.01,2013-03-16 22:50:00,
2013-03-16 15:52:00,47.8,41.6,29.93,SW,215,12.0,12.0,79,0.00,,---,0.05,232.00,VWS V14.01,2013-03-16 22:52:00,
2013-03-16 15:55:00,47.8,41.3,29.93,SSW,198,7.0,19.0,78,0.00,,---,0.05,229.00,VWS V14.01,2013-03-16 22:55:00,
2013-03-16 15:57:00,47.4,40.9,29.92,SSW,192,7.0,11.0,78,0.00,,---,0.05,290.00,VWS V14.01,2013-03-16 22:57:00,
2013-03-16 16:00:00,47.4,40.6,29.92,WSW,240,4.0,22.0,77,0.00,,---,0.05,272.00,VWS V14.01,2013-03-16 23:00:00,
2013-03-16 16:02:00,47.4,41.2,29.92,SW,226,16.0,19.0,79,0.00,,---,0.05,387.00,VWS V14.01,2013-03-16 23:02:00,
2013-03-16 16:05:00,47.4,40.6,29.92,SSW,200,7.0,18.0,77,0.00,,---,0.05,374.00,VWS V14.01,2013-03-16 23:05:00,
2013-03-16 16:07:00,47.6,41.1,29.92,SSW,211,9.0,13.0,78,0.00,,---,0.05,348.00,VWS V14.01,2013-03-16 23:07:00,
2013-03-16 16:10:00,47.6,41.1,29.92,SSW,192,13.0,19.0,78,0.00,,---,0.05,359.00,VWS V14.01,2013-03-16 23:10:00,
2013-03-16 16:13:00,47.1,40.3,29.91,WSW,255,10.0,15.0,77,0.00,,---,0.05,262.00,VWS V14.01,2013-03-16 23:13:00,
2013-03-16 16:15:00,47.2,40.4,29.91,SW,226,10.0,16.0,77,0.00,,---,0.05,288.00,VWS V14.01,2013-03-16 23:15:00,
2013-03-16 16:17:00,46.8,40.6,29.92,SW,223,12.0,18.0,79,0.00,,---,0.05,207.00,VWS V14.01,2013-03-16 23:17:00,
2013-03-16 16:20:00,46.8,40.6,29.92,SSW,202,18.0,18.0,79,0.00,,---,0.05,216.00,VWS V14.01,2013-03-16 23:20:00,
2013-03-16 16:22:00,46.2,40.7,29.92,SW,221,13.0,13.0,81,0.00,,---,0.05,155.00,VWS V14.01,2013-03-16 23:22:00,
2013-03-16 16:25:00,46.2,40.7,29.92,SSW,198,6.0,22.0,81,0.00,,---,0.05,155.00,VWS V14.01,2013-03-16 23:25:00,
2013-03-16 16:28:00,45.9,40.7,29.92,SW,234,8.0,11.0,82,0.00,,---,0.05,250.00,VWS V14.01,2013-03-16 23:28:00,
2013-03-16 16:30:00,45.9,40.7,29.92,South,188,10.0,15.0,82,0.00,,---,0.05,250.00,VWS V14.01,2013-03-16 23:30:00,
2013-03-16 16:32:00,46.3,41.1,29.92,SW,231,19.0,20.0,82,0.00,,---,0.05,278.00,VWS V14.01,2013-03-16 23:32:00,
2013-03-16 16:35:00,46.3,41.1,29.92,SSW,200,10.0,13.0,82,0.00,,---,0.05,290.00,VWS V14.01,2013-03-16 23:35:00,
2013-03-16 16:37:00,45.9,40.4,29.92,SSW,196,7.0,15.0,81,0.00,,---,0.05,132.00,VWS V14.01,2013-03-16 23:37:00,
2013-03-16 16:40:00,46.0,40.5,29.91,SSW,208,9.0,20.0,81,0.00,,---,0.05,139.00,VWS V14.01,2013-03-16 23:40:00,
2013-03-16 16:42:00,45.8,41.2,29.91,SSW,194,11.0,13.0,84,0.00,,---,0.05,127.00,VWS V14.01,2013-03-16 23:42:00,
2013-03-16 16:45:00,45.8,40.9,29.91,SW,217,7.0,23.0,83,0.00,,---,0.05,128.00,VWS V14.01,2013-03-16 23:45:00,
2013-03-16 16:47:00,45.6,40.7,29.91,SSW,213,11.0,17.0,83,0.00,,---,0.05,146.00,VWS V14.01,2013-03-16 23:47:00,
2013-03-16 16:50:00,45.6,41.0,29.91,SSW,198,17.0,17.0,84,0.00,,---,0.05,146.00,VWS V14.01,2013-03-16 23:50:00,
2013-03-16 16:52:00,45.5,40.7,29.91,South,188,18.0,20.0,83,0.00,,---,0.05,149.00,VWS V14.01,2013-03-16 23:52:00,
2013-03-16 16:55:00,45.6,40.7,29.91,SSW,192,17.0,17.0,83,0.00,,---,0.05,146.00,VWS V14.01,2013-03-16 23:55:00,
2013-03-16 16:57:00,45.3,40.1,29.92,SSW,209,14.0,20.0,82,0.00,,---,0.05,130.00,VWS V14.01,2013-03-16 23:57:00,
2013-03-16 17:00:00,45.4,40.2,29.92,South,177,12.0,28.0,82,0.00,,---,0.05,132.00,VWS V14.01,2013-03-17 00:00:00,
2013-03-16 17:02:00,45.0,39.8,29.90,SW,221,11.0,17.0,82,0.00,,---,0.05,118.00,VWS V14.01,2013-03-17 00:02:00,
2013-03-16 17:05:00,45.1,39.9,29.91,SW,228,8.0,20.0,82,0.00,,---,0.05,114.00,VWS V14.01,2013-03-17 00:05:00,
2013-03-16 17:07:00,44.9,39.4,29.91,South,171,11.0,11.0,81,0.00,,---,0.05,155.00,VWS V14.01,2013-03-17 00:07:00,
2013-03-16 17:10:00,45.0,39.8,29.91,SSW,204,7.0,17.0,82,0.00,,---,0.05,149.00,VWS V14.01,2013-03-17 00:10:00,
2013-03-16 17:12:00,45.2,39.4,29.91,South,177,10.0,11.0,80,0.00,,---,0.05,248.00,VWS V14.01,2013-03-17 00:12:00,
2013-03-16 17:15:00,45.1,39.3,29.91,SW,225,11.0,17.0,80,0.00,,---,0.05,223.00,VWS V14.01,2013-03-17 00:15:00,
2013-03-16 17:17:00,45.9,38.8,29.92,SSW,205,15.0,15.0,76,0.00,,---,0.05,209.00,VWS V14.01,2013-03-17 00:17:00,
2013-03-16 17:20:00,45.8,39.0,29.91,South,183,14.0,18.0,77,0.00,,---,0.05,225.00,VWS V14.01,2013-03-17 00:20:00,
2013-03-16 17:23:00,45.9,38.4,29.92,SW,216,12.0,20.0,75,0.00,,---,0.05,172.00,VWS V14.01,2013-03-17 00:23:00,
2013-03-16 17:25:00,45.9,38.1,29.92,South,176,9.0,15.0,74,0.00,,---,0.05,179.00,VWS V14.01,2013-03-17 00:25:00,
2013-03-16 17:28:00,45.8,37.3,29.92,SW,234,7.0,12.0,72,0.00,,---,0.05,146.00,VWS V14.01,2013-03-17 00:28:00,
2013-03-16 17:30:00,45.8,37.7,29.92,South,171,8.0,20.0,73,0.00,,---,0.05,148.00,VWS V14.01,2013-03-17 00:30:00,
2013-03-16 17:33:00,45.8,37.3,29.92,SW,221,16.0,17.0,72,0.00,,---,0.05,130.00,VWS V14.01,2013-03-17 00:33:00,
2013-03-16 17:35:00,45.8,37.7,29.92,SW,219,15.0,15.0,73,0.00,,---,0.05,127.00,VWS V14.01,2013-03-17 00:35:00,
2013-03-16 17:38:00,45.3,37.2,29.92,SSE,148,5.0,7.0,73,0.00,,---,0.05,74.00,VWS V14.01,2013-03-17 00:38:00,
2013-03-16 17:40:00,45.4,36.9,29.92,SSW,212,6.0,17.0,72,0.00,,---,0.05,70.00,VWS V14.01,2013-03-17 00:40:00,
2013-03-16 17:43:00,45.2,37.4,29.92,SW,226,8.0,8.0,74,0.00,,---,0.05,77.00,VWS V14.01,2013-03-17 00:43:00,
2013-03-16 17:45:00,45.2,37.4,29.92,SW,236,8.0,11.0,74,0.00,,---,0.05,79.00,VWS V14.01,2013-03-17 00:45:00,
2013-03-16 17:48:00,45.2,36.7,29.92,West,277,3.0,8.0,72,0.00,,---,0.05,107.00,VWS V14.01,2013-03-17 00:48:00,
2013-03-16 17:50:00,45.2,36.7,29.92,SW,231,7.0,15.0,72,0.00,,---,0.05,107.00,VWS V14.01,2013-03-17 00:50:00,
2013-03-16 17:53:00,45.5,37.4,29.92,SSW,200,11.0,12.0,73,0.00,,---,0.05,100.00,VWS V14.01,2013-03-17 00:53:00,
2013-03-16 17:55:00,45.5,37.0,29.92,SW,226,11.0,13.0,72,0.00,,---,0.05,90.00,VWS V14.01,2013-03-17 00:55:00,
2013-03-16 17:58:00,45.4,36.6,29.92,WSW,247,8.0,10.0,71,0.00,,---,0.05,221.00,VWS V14.01,2013-03-17 00:58:00,
2013-03-16 18:00:00,45.4,36.6,29.92,South,176,7.0,15.0,71,0.00,,---,0.05,127.00,VWS V14.01,2013-03-17 01:00:00,
2013-03-16 18:03:00,45.6,37.1,29.92,WSW,246,7.0,13.0,72,0.00,,---,0.05,95.00,VWS V14.01,2013-03-17 01:03:00,
2013-03-16 18:05:00,45.5,36.7,29.92,WSW,238,7.0,17.0,71,0.00,,---,0.05,204.00,VWS V14.01,2013-03-17 01:05:00,
2013-03-16 18:08:00,45.4,37.3,29.92,SSW,203,6.0,9.0,73,0.00,,---,0.05,120.00,VWS V14.01,2013-03-17 01:08:00,
2013-03-16 18:10:00,45.4,36.9,29.92,WSW,252,4.0,14.0,72,0.00,,---,0.05,111.00,VWS V14.01,2013-03-17 01:10:00,
2013-03-16 18:13:00,45.0,36.9,29.93,SSW,203,8.0,12.0,73,0.00,,---,0.05,62.00,VWS V14.01,2013-03-17 01:13:00,
2013-03-16 18:15:00,45.1,37.0,29.92,SSW,203,7.0,15.0,73,0.00,,---,0.05,70.00,VWS V14.01,2013-03-17 01:15:00,
2013-03-16 18:18:00,44.7,36.9,29.93,SSE,159,6.0,11.0,74,0.00,,---,0.05,53.00,VWS V14.01,2013-03-17 01:18:00,
2013-03-16 18:20:00,44.8,37.4,29.93,South,188,6.0,12.0,75,0.00,,---,0.05,51.00,VWS V14.01,2013-03-17 01:20:00,
2013-03-16 18:23:00,44.5,36.7,29.93,SSW,196,7.0,12.0,74,0.00,,---,0.05,40.00,VWS V14.01,2013-03-17 01:23:00,
2013-03-16 18:25:00,44.5,36.7,29.93,SW,227,12.0,12.0,74,0.00,,---,0.05,42.00,VWS V14.01,2013-03-17 01:25:00,
2013-03-16 18:28:00,44.2,37.1,29.93,SSW,206,8.0,8.0,76,0.00,,---,0.05,30.00,VWS V14.01,2013-03-17 01:28:00,
2013-03-16 18:30:00,44.3,37.6,29.93,SW,217,8.0,14.0,77,0.00,,---,0.05,30.00,VWS V14.01,2013-03-17 01:30:00,
2013-03-16 18:33:00,44.1,37.0,29.93,South,191,7.0,13.0,76,0.00,,---,0.05,42.00,VWS V14.01,2013-03-17 01:33:00,
2013-03-16 18:35:00,44.1,37.0,29.93,SW,236,13.0,13.0,76,0.00,,---,0.05,37.00,VWS V14.01,2013-03-17 01:35:00,
2013-03-16 18:38:00,43.9,37.2,29.93,SW,227,6.0,9.0,77,0.00,,---,0.05,44.00,VWS V14.01,2013-03-17 01:38:00,
2013-03-16 18:40:00,44.0,36.9,29.93,SSW,205,8.0,13.0,76,0.00,,---,0.05,53.00,VWS V14.01,2013-03-17 01:40:00,
2013-03-16 18:43:00,43.9,37.2,29.93,SSW,202,7.0,7.0,77,0.00,,---,0.05,47.00,VWS V14.01,2013-03-17 01:43:00,
2013-03-16 18:45:00,43.9,37.2,29.93,SSW,209,5.0,13.0,77,0.00,,---,0.05,47.00,VWS V14.01,2013-03-17 01:45:00,
2013-03-16 18:48:00,43.8,37.4,29.93,South,182,6.0,7.0,78,0.00,,---,0.05,28.00,VWS V14.01,2013-03-17 01:48:00,
2013-03-16 18:50:00,43.8,37.4,29.93,SSW,210,7.0,14.0,78,0.00,,---,0.05,30.00,VWS V14.01,2013-03-17 01:50:00,
2013-03-16 18:53:00,43.8,37.1,29.93,South,179,9.0,12.0,77,0.00,,---,0.05,23.00,VWS V14.01,2013-03-17 01:53:00,
2013-03-16 18:55:00,43.7,37.0,29.93,South,184,8.0,12.0,77,0.00,,---,0.05,23.00,VWS V14.01,2013-03-17 01:55:00,
2013-03-16 18:58:00,43.8,37.1,29.93,SW,227,8.0,8.0,77,0.00,,---,0.05,26.00,VWS V14.01,2013-03-17 01:58:00,
2013-03-16 19:00:00,43.8,37.1,29.94,South,175,8.0,12.0,77,0.00,,---,0.05,26.00,VWS V14.01,2013-03-17 02:00:00,
2013-03-16 19:03:00,43.8,37.4,29.93,SSW,197,8.0,10.0,78,0.00,,---,0.05,16.00,VWS V14.01,2013-03-17 02:03:00,
2013-03-16 19:05:00,43.9,37.5,29.93,South,186,3.0,10.0,78,0.00,,---,0.05,21.00,VWS V14.01,2013-03-17 02:05:00,
2013-03-16 19:08:00,43.7,37.3,29.93,SSW,193,10.0,10.0,78,0.00,,---,0.05,7.00,VWS V14.01,2013-03-17 02:08:00,
2013-03-16 19:10:00,43.7,37.3,29.93,SSW,196,7.0,12.0,78,0.00,,---,0.05,7.00,VWS V14.01,2013-03-17 02:10:00,
2013-03-16 19:13:00,43.6,37.2,29.94,SSW,208,9.0,10.0,78,0.00,,---,0.05,0.00,VWS V14.01,2013-03-17 02:13:00,
2013-03-16 19:15:00,43.6,37.2,29.93,SSW,207,9.0,10.0,78,0.00,,---,0.05,0.00,VWS V14.01,2013-03-17 02:15:00,
2013-03-16 19:18:00,43.4,36.7,29.93,SSW,202,7.0,7.0,77,0.00,,---,0.05,0.00,VWS V14.01,2013-03-17 02:18:00,
2013-03-16 19:20:00,43.5,37.1,29.93,South,186,2.0,10.0,78,0.00,,---,0.05,0.00,VWS V14.01,2013-03-17 02:20:00,
2013-03-16 19:23:00,43.3,36.6,29.93,SSW,192,9.0,10.0,77,0.00,,---,0.05,0.00,VWS V14.01,2013-03-17 02:23:00,
2013-03-16 19:25:00,43.3,36.6,29.93,SSW,198,10.0,12.0,77,0.00,,---,0.05,0.00,VWS V14.01,2013-03-17 02:25:00,
2013-03-16 19:28:00,43.3,36.6,29.94,SSW,209,9.0,10.0,77,0.00,,---,0.05,0.00,VWS V14.01,2013-03-17 02:28:00,
2013-03-16 19:30:00,43.3,36.6,29.94,SSW,211,8.0,10.0,77,0.00,,---,0.05,0.00,VWS V14.01,2013-03-17 02:30:00,
2013-03-16 19:33:00,43.2,36.2,29.94,South,187,4.0,7.0,76,0.00,,---,0.05,0.00,VWS V14.01,2013-03-17 02:33:00,
2013-03-16 19:35:00,43.2,36.2,29.94,South,181,4.0,11.0,76,0.00,,---,0.05,0.00,VWS V14.01,2013-03-17 02:35:00,
2013-03-16 19:38:00,43.1,36.1,29.94,SW,229,5.0,7.0,76,0.00,,---,0.05,0.00,VWS V14.01,2013-03-17 02:38:00,
2013-03-16 19:40:00,43.1,36.1,29.94,South,179,6.0,10.0,76,0.00,,---,0.05,0.00,VWS V14.01,2013-03-17 02:40:00,
2013-03-16 19:43:00,43.1,35.7,29.94,SSW,203,6.0,9.0,75,0.00,,---,0.05,0.00,VWS V14.01,2013-03-17 02:43:00,
2013-03-16 19:45:00,43.1,35.7,29.94,SSW,200,9.0,12.0,75,0.00,,---,0.05,0.00,VWS V14.01,2013-03-17 02:45:00,
2013-03-16 19:48:00,43.1,35.7,29.94,WSW,242,7.0,7.0,75,0.00,,---,0.05,0.00,VWS V14.01,2013-03-17 02:48:00,
2013-03-16 19:50:00,43.1,35.7,29.94,SSW,195,6.0,9.0,75,0.00,,---,0.05,0.00,VWS V14.01,2013-03-17 02:50:00,
2013-03-16 19:53:00,43.1,35.7,29.94,South,188,4.0,4.0,75,0.00,,---,0.05,0.00,VWS V14.01,2013-03-17 02:53:00,
2013-03-16 19:55:00,43.2,35.8,29.94,SSW,212,4.0,7.0,75,0.00,,---,0.05,0.00,VWS V14.01,2013-03-17 02:55:00,
2013-03-16 19:58:00,43.0,35.6,29.94,SW,215,6.0,10.0,75,0.00,,---,0.05,0.00,VWS V14.01,2013-03-17 02:58:00,
2013-03-16 20:00:00,43.0,36.0,29.94,SW,215,8.0,9.0,76,0.00,,---,0.05,0.00,VWS V14.01,2013-03-17 03:00:00,
2013-03-16 20:03:00,43.0,35.6,29.94,SSW,205,4.0,5.0,75,0.00,,---,0.05,0.00,VWS V14.01,2013-03-17 03:03:00,
2013-03-16 20:05:00,43.1,35.7,29.94,SW,224,4.0,12.0,75,0.00,,---,0.05,0.00,VWS V14.01,2013-03-17 03:05:00,
2013-03-16 20:08:00,42.8,35.8,29.95,South,182,3.0,10.0,76,0.00,,---,0.05,0.00,VWS V14.01,2013-03-17 03:08:00,
2013-03-16 20:10:00,42.8,35.8,29.94,SSW,202,10.0,10.0,76,0.00,,---,0.05,0.00,VWS V14.01,2013-03-17 03:10:00,
2013-03-16 20:13:00,42.6,35.9,29.95,SSW,207,7.0,7.0,77,0.00,,---,0.05,0.00,VWS V14.01,2013-03-17 03:13:00,
2013-03-16 20:15:00,42.7,36.0,29.95,SSW,207,3.0,10.0,77,0.00,,---,0.05,0.00,VWS V14.01,2013-03-17 03:15:00,
2013-03-16 20:18:00,42.6,35.9,29.95,SW,227,7.0,8.0,77,0.00,,---,0.05,0.00,VWS V14.01,2013-03-17 03:18:00,
2013-03-16 20:20:00,42.6,35.9,29.95,SW,219,7.0,9.0,77,0.00,,---,0.05,0.00,VWS V14.01,2013-03-17 03:20:00,
2013-03-16 20:23:00,42.6,35.9,29.95,SW,227,10.0,10.0,77,0.00,,---,0.05,0.00,VWS V14.01,2013-03-17 03:23:00,
2013-03-16 20:25:00,42.6,35.9,29.95,SSE,162,4.0,10.0,77,0.00,,---,0.05,0.00,VWS V14.01,2013-03-17 03:25:00,
2013-03-16 20:28:00,42.6,35.9,29.95,South,183,4.0,5.0,77,0.00,,---,0.05,0.00,VWS V14.01,2013-03-17 03:28:00,
2013-03-16 20:30:00,42.6,35.9,29.95,SW,232,4.0,10.0,77,0.00,,---,0.05,0.00,VWS V14.01,2013-03-17 03:30:00,
2013-03-16 20:33:00,42.5,35.5,29.95,SSW,213,6.0,12.0,76,0.00,,---,0.05,0.00,VWS V14.01,2013-03-17 03:33:00,
2013-03-16 20:35:00,42.5,35.8,29.96,SW,223,9.0,12.0,77,0.00,,---,0.05,0.00,VWS V14.01,2013-03-17 03:35:00,
2013-03-16 20:38:00,42.4,35.7,29.96,SW,232,7.0,10.0,77,0.00,,---,0.05,0.00,VWS V14.01,2013-03-17 03:38:00,
2013-03-16 20:40:00,42.4,35.7,29.96,SW,232,4.0,12.0,77,0.00,,---,0.05,0.00,VWS V14.01,2013-03-17 03:40:00,
2013-03-16 20:43:00,42.3,35.6,29.95,South,182,9.0,9.0,77,0.00,,---,0.05,0.00,VWS V14.01,2013-03-17 03:43:00,
2013-03-16 20:45:00,42.4,35.7,29.96,SSE,163,5.0,11.0,77,0.00,,---,0.05,0.00,VWS V14.01,2013-03-17 03:45:00,
2013-03-16 20:48:00,42.2,35.8,29.95,SW,227,5.0,7.0,78,0.00,,---,0.05,0.00,VWS V14.01,2013-03-17 03:48:00,
2013-03-16 20:50:00,42.3,35.9,29.95,WSW,241,5.0,11.0,78,0.00,,---,0.05,0.00,VWS V14.01,2013-03-17 03:50:00,
2013-03-16 20:53:00,42.0,35.7,29.96,SW,231,6.0,7.0,78,0.00,,---,0.05,0.00,VWS V14.01,2013-03-17 03:53:00,
2013-03-16 20:55:00,42.0,35.7,29.95,SW,217,7.0,12.0,78,0.00,,---,0.05,0.00,VWS V14.01,2013-03-17 03:55:00,
2013-03-16 20:58:00,41.8,35.8,29.95,SSW,207,6.0,8.0,79,0.00,,---,0.05,0.00,VWS V14.01,2013-03-17 03:58:00,
2013-03-16 21:00:00,41.7,35.7,29.95,SW,223,10.0,10.0,79,0.00,,---,0.05,0.00,VWS V14.01,2013-03-17 04:00:00,
2013-03-16 21:05:00,41.7,36.0,29.95,WSW,254,7.0,9.0,80,0.00,,---,0.05,0.00,VWS V14.01,2013-03-17 04:05:00,
2013-03-16 21:10:00,41.7,36.0,29.96,SSW,213,4.0,8.0,80,0.00,,---,0.05,0.00,VWS V14.01,2013-03-17 04:10:00,
2013-03-16 21:15:00,41.6,36.2,29.95,SW,218,6.0,9.0,81,0.00,,---,0.05,0.00,VWS V14.01,2013-03-17 04:15:00,
2013-03-16 21:20:00,41.6,36.2,29.96,SW,236,6.0,10.0,81,0.00,,---,0.05,0.00,VWS V14.01,2013-03-17 04:20:00,
2013-03-16 21:25:00,41.6,36.5,29.95,WSW,238,6.0,7.0,82,0.00,,---,0.05,0.00,VWS V14.01,2013-03-17 04:25:00,
2013-03-16 21:30:00,41.5,36.7,29.95,SW,236,6.0,8.0,83,0.00,,---,0.05,0.00,VWS V14.01,2013-03-17 04:30:00,
2013-03-16 21:35:00,41.4,36.6,29.95,SW,228,4.0,8.0,83,0.00,,---,0.05,0.00,VWS V14.01,2013-03-17 04:35:00,
2013-03-16 21:40:00,41.3,36.5,29.95,West,260,6.0,6.0,83,0.00,,---,0.05,0.00,VWS V14.01,2013-03-17 04:40:00,
2013-03-16 21:45:00,41.1,36.6,29.95,SW,215,4.0,7.0,84,0.00,,---,0.05,0.00,VWS V14.01,2013-03-17 04:45:00,
2013-03-16 21:50:00,41.0,36.5,29.95,SSW,202,6.0,10.0,84,0.00,,---,0.05,0.00,VWS V14.01,2013-03-17 04:50:00,
2013-03-16 21:55:00,40.9,36.5,29.95,SW,236,5.0,6.0,84,0.00,,---,0.05,0.00,VWS V14.01,2013-03-17 04:55:00,
2013-03-16 22:00:00,40.8,36.3,29.95,SW,225,6.0,9.0,84,0.00,,---,0.05,0.00,VWS V14.01,2013-03-17 05:00:00,
2013-03-16 22:05:00,40.7,36.2,29.96,SW,217,9.0,12.0,84,0.00,,---,0.05,0.00,VWS V14.01,2013-03-17 05:05:00,
2013-03-16 22:10:00,40.7,36.2,29.96,West,275,8.0,9.0,84,0.00,,---,0.05,0.00,VWS V14.01,2013-03-17 05:10:00,
2013-03-16 22:15:00,40.6,36.5,29.96,SW,224,6.0,7.0,85,0.00,,---,0.05,0.00,VWS V14.01,2013-03-17 05:15:00,
2013-03-16 22:20:00,40.7,36.5,29.96,SW,214,6.0,8.0,85,0.00,,---,0.05,0.00,VWS V14.01,2013-03-17 05:20:00,
2013-03-16 22:25:00,40.7,36.5,29.97,SW,232,8.0,8.0,85,0.00,,---,0.05,0.00,VWS V14.01,2013-03-17 05:25:00,
2013-03-16 22:30:00,40.7,36.5,29.97,South,186,2.0,9.0,85,0.00,,---,0.05,0.00,VWS V14.01,2013-03-17 05:30:00,
2013-03-16 22:35:00,40.6,36.8,29.96,SW,221,6.0,8.0,86,0.00,,---,0.05,0.00,VWS V14.01,2013-03-17 05:35:00,
2013-03-16 22:40:00,40.6,36.8,29.97,SW,215,3.0,6.0,86,0.00,,---,0.05,0.00,VWS V14.01,2013-03-17 05:40:00,
2013-03-16 22:45:00,40.5,36.7,29.97,West,261,6.0,8.0,86,0.00,,---,0.05,0.00,VWS V14.01,2013-03-17 05:45:00,
2013-03-16 22:50:00,40.4,36.5,29.97,WSW,250,4.0,11.0,86,0.00,,---,0.05,0.00,VWS V14.01,2013-03-17 05:50:00,
2013-03-16 22:55:00,40.4,36.5,29.97,WSW,239,5.0,8.0,86,0.00,,---,0.05,0.00,VWS V14.01,2013-03-17 05:55:00,
2013-03-16 23:00:00,40.3,36.5,29.97,WSW,239,6.0,14.0,86,0.00,,---,0.05,0.00,VWS V14.01,2013-03-17 06:00:00,
2013-03-16 23:05:00,40.3,36.5,29.97,SW,236,4.0,10.0,86,0.00,,---,0.05,0.00,VWS V14.01,2013-03-17 06:05:00,
2013-03-16 23:10:00,40.2,36.3,29.98,SW,230,13.0,13.0,86,0.00,,---,0.05,0.00,VWS V14.01,2013-03-17 06:10:00,
2013-03-16 23:15:00,40.2,36.3,29.98,WSW,239,4.0,11.0,86,0.00,,---,0.05,0.00,VWS V14.01,2013-03-17 06:15:00,
2013-03-16 23:20:00,40.3,36.5,29.98,SW,231,4.0,11.0,86,0.00,,---,0.05,0.00,VWS V14.01,2013-03-17 06:20:00,
2013-03-16 23:25:00,40.3,36.5,29.98,WSW,246,6.0,9.0,86,0.00,,---,0.05,0.00,VWS V14.01,2013-03-17 06:25:00,
2013-03-16 23:30:00,40.3,36.5,29.98,WSW,247,4.0,9.0,86,0.00,,---,0.05,0.00,VWS V14.01,2013-03-17 06:30:00,
2013-03-16 23:35:00,40.3,36.5,29.98,SSW,210,7.0,7.0,86,0.00,,---,0.05,0.00,VWS V14.01,2013-03-17 06:35:00,
2013-03-16 23:40:00,40.2,36.3,29.99,WSW,244,4.0,11.0,86,0.00,,---,0.05,0.00,VWS V14.01,2013-03-17 06:40:00,
2013-03-16 23:45:00,40.3,36.5,29.99,SSW,207,9.0,9.0,86,0.00,,---,0.05,0.00,VWS V14.01,2013-03-17 06:45:00,
2013-03-16 23:50:00,40.2,36.3,30.00,SW,235,4.0,9.0,86,0.00,,---,0.05,0.00,VWS V14.01,2013-03-17 06:50:00,
2013-03-16 23:55:00,40.2,36.3,30.00,South,190,6.0,9.0,86,0.00,,---,0.05,0.00,VWS V14.01,2013-03-17 06:55:00,